This is the latest recevied weather packets stored in our database for station/object HB9FHL-13. If no packets are shown the sender has not sent any weather packets the latest 10 day(s).
| Time | Temp. | Humidity | Pressure | Rain* | Wind** | Luminosity | Snow |
|---|---|---|---|---|---|---|---|
| 1788568341 | 23.89° C | - | 1018.1 hPa | 0 mm | - | - | - |
| 1788568041 | 25° C | - | 1021.3 hPa | 0 mm | - | - | - |
| 1788567740 | 23.89° C | - | 1019.6 hPa | 0 mm | - | - | - |
| 1788567440 | 25° C | - | 1024.7 hPa | 0 mm | - | - | - |
| 1788567139 | 25° C | - | 1015.6 hPa | 0 mm | - | - | - |
| 1788566839 | 25° C | - | 1020.6 hPa | 0 mm | - | - | - |
| 1788566238 | 23.89° C | - | 1019.9 hPa | 0 mm | - | - | - |
| 1788565937 | 24.44° C | - | 1022.6 hPa | 0 mm | - | - | - |
| 1788565637 | 25.56° C | - | 1020.4 hPa | 0 mm | - | - | - |
| 1788565336 | 25° C | - | 1019.6 hPa | 0 mm | - | - | - |
| 1788565036 | 25.56° C | - | 1033.3 hPa | 0 mm | - | - | - |
| 1788564735 | 25.56° C | - | 1021 hPa | 0 mm | - | - | - |
| 1788564435 | 25.56° C | - | 1023.5 hPa | 0 mm | - | - | - |
| 1788564134 | 25.56° C | - | 1020.1 hPa | 0 mm | - | - | - |
| 1788563834 | 25° C | - | 1019.4 hPa | 0 mm | - | - | - |
| 1788563533 | 25° C | - | 1021.5 hPa | 0 mm | - | - | - |
| 1788563233 | 25° C | - | 1025.3 hPa | 0 mm | - | - | - |
| 1788562932 | 24.44° C | - | 1022.3 hPa | 0 mm | - | - | - |
| 1788562632 | 26.11° C | - | 1018.3 hPa | 0 mm | - | - | - |
| 1788562331 | 25° C | - | 1023.7 hPa | 0 mm | - | - | - |
| 1788562031 | 25.56° C | - | 1019.8 hPa | 0 mm | - | - | - |
| 1788561730 | 25° C | - | 1014.6 hPa | 0 mm | - | - | - |
| 1788561430 | 25° C | - | 1021.1 hPa | 0 mm | - | - | - |
| 1788561130 | 26.67° C | - | 1023.4 hPa | 0 mm | - | - | - |
| 1788560829 | 25.56° C | - | 1016.1 hPa | 0 mm | - | - | - |
* Rain since midnight (hover to see other rain measurements)
** Current wind speed in m/s (hover to see current wind gust speed)